TimeCST,TemperatureF,Dew PointF,Humidity,Sea Level PressureIn,VisibilityMPH,Wind Direction,Wind SpeedMPH,Gust SpeedMPH,PrecipitationIn,Events,Conditions,WindDirDegrees,DateUTC
12:54 AM,39.0,36.0,89,29.76,10.0,NW,6.9,-,N/A,,Overcast,320,2012-12-17 06:54:00
1:54 AM,39.0,36.0,89,29.76,10.0,NNE,3.5,-,N/A,,Overcast,20,2012-12-17 07:54:00
2:54 AM,39.0,37.0,93,29.76,8.0,NE,3.5,-,N/A,,Overcast,50,2012-12-17 08:54:00
3:54 AM,39.0,36.0,89,29.74,7.0,Calm,Calm,-,N/A,,Overcast,0,2012-12-17 09:54:00
4:35 AM,39.2,37.4,93,29.73,7.0,Calm,Calm,-,N/A,,Overcast,0,2012-12-17 10:35:00
4:54 AM,39.0,37.0,93,29.73,7.0,Calm,Calm,-,N/A,,Overcast,0,2012-12-17 10:54:00
5:54 AM,39.0,37.0,93,29.73,7.0,NNE,3.5,-,N/A,,Overcast,30,2012-12-17 11:54:00
6:54 AM,39.0,37.0,93,29.74,6.0,NE,4.6,-,N/A,,Overcast,40,2012-12-17 12:54:00
7:54 AM,39.0,37.0,93,29.74,6.0,Calm,Calm,-,N/A,,Overcast,0,2012-12-17 13:54:00
8:54 AM,39.0,37.0,93,29.73,5.0,NE,4.6,-,N/A,,Overcast,50,2012-12-17 14:54:00
9:19 AM,39.2,37.4,93,29.72,4.0,NNE,5.8,-,0.00,Rain,Light Rain,30,2012-12-17 15:19:00
9:54 AM,39.0,37.9,96,29.72,3.0,NNE,8.1,-,0.00,,Overcast,30,2012-12-17 15:54:00
10:54 AM,39.0,37.0,93,29.71,4.0,NNE,6.9,-,N/A,,Overcast,30,2012-12-17 16:54:00
11:54 AM,39.0,37.0,93,29.69,5.0,NNE,8.1,-,N/A,,Overcast,20,2012-12-17 17:54:00
12:54 PM,39.0,36.0,89,29.67,7.0,North,9.2,-,N/A,,Overcast,10,2012-12-17 18:54:00
1:54 PM,37.9,36.0,93,29.67,7.0,North,5.8,-,N/A,,Overcast,360,2012-12-17 19:54:00
2:15 PM,37.4,35.6,93,29.65,8.0,NNE,8.1,-,N/A,,Overcast,20,2012-12-17 20:15:00
2:25 PM,39.2,35.6,87,29.65,9.0,North,8.1,-,N/A,,Overcast,10,2012-12-17 20:25:00
2:51 PM,37.4,35.6,93,29.66,10.0,North,8.1,-,N/A,,Overcast,350,2012-12-17 20:51:00
2:54 PM,37.9,36.0,93,29.67,10.0,North,8.1,-,N/A,,Overcast,350,2012-12-17 20:54:00
3:21 PM,37.4,35.6,93,29.67,10.0,NNW,8.1,-,N/A,,Overcast,330,2012-12-17 21:21:00
3:34 PM,37.4,35.6,93,29.67,8.0,North,5.8,-,N/A,,Overcast,350,2012-12-17 21:34:00
3:54 PM,37.0,36.0,96,29.69,5.0,NW,5.8,-,N/A,,Overcast,320,2012-12-17 21:54:00
6:21 PM,35.6,35.6,100,29.71,5.0,West,4.6,-,0.01,Rain,Light Rain,280,2012-12-18 00:21:00
6:54 PM,35.1,35.1,100,29.72,5.0,WNW,5.8,-,0.01,,Overcast,300,2012-12-18 00:54:00
7:26 PM,35.6,35.6,100,29.72,4.0,West,5.8,-,N/A,,Overcast,270,2012-12-18 01:26:00
7:54 PM,35.1,35.1,100,29.74,4.0,West,5.8,-,N/A,,Overcast,270,2012-12-18 01:54:00
8:54 PM,36.0,35.1,97,29.75,5.0,WNW,5.8,-,N/A,,Overcast,290,2012-12-18 02:54:00
9:54 PM,36.0,35.1,97,29.76,4.0,WNW,5.8,-,N/A,,Overcast,290,2012-12-18 03:54:00
10:54 PM,36.0,36.0,100,29.78,4.0,West,6.9,-,N/A,,Overcast,280,2012-12-18 04:54:00
11:12 PM,35.6,35.6,100,29.77,5.0,West,6.9,-,N/A,,Overcast,280,2012-12-18 05:12:00
11:54 PM,36.0,35.1,97,29.79,7.0,West,8.1,-,N/A,,Overcast,280,2012-12-18 05:54:00